Salina, KS

1:37 PM CDT on September 30, 2016 (GMT -0500)
Salina Municipal

Weather History for KSLN - March, 2012

Change the Weather History Date:

Tuesday, March 20, 2012

  Actual Average Record
Temperature  
Mean Temperature 54 °F 47 °F  
Max Temperature 57 °F 59 °F 86 °F (1934)
Min Temperature 51 °F 35 °F 6 °F (1914)
Degree Days  
Heating Degree Days 11 18  
Month to date heating degree days 234 427  
Since 1 July heating degree days 3815 4268  
Cooling Degree Days 0 0  
Month to date cooling degree days 26 0  
Year to date cooling degree days 26 0  
Growing Degree Days 4 (Base 50)    
Moisture  
Dew Point 51 °F    
Average Humidity 90    
Maximum Humidity 100    
Minimum Humidity 80    
Precipitation  
Precipitation 0.22 in 0.09 in 0.58 in (2006)
Month to date precipitation 0.73 1.42  
Year to date precipitation 2.90 3.22  
Sea Level Pressure  
Sea Level Pressure 29.77 in    
Wind  
Wind Speed 8 mph (ENE)    
Max Wind Speed 21 mph    
Max Gust Speed 24 mph    
Visibility 8 miles    
Events Rain    
T = Trace of Precipitation, MM = Missing Value Source: NWS Daily Summary

Daily Weather History Graph

Daily Weather History Graph

Search for Another Location

Airport or City:

Trip Planner

Search our weather history database for the weather conditions in past years. The results will help you decide how hot, cold, wet, or windy it might be!

Date:

Astronomy

Mar. 20, 2012 Rise Set
Actual Time 7:33 AM CDT 7:43 PM CDT
Civil Twilight 7:06 AM CDT 8:09 PM CDT
Nautical Twilight 6:35 AM CDT 8:40 PM CDT
Astronomical Twilight 6:04 AM CDT 9:12 PM CDT
Moon 6:15 AM CDT (3/20) 6:12 PM CDT (3/20)
Length of Visible Light 13h 02m
Length of Day
12h 09m
Waning Crescent, 4% of the Moon is Illuminated
Mar 20
Waning Crescent
Mar 22
New
Mar 30
First Quarter
Apr 6
Full
Apr 13
Last Quarter

Hourly Weather History & Observations

Time (CDT) Temp. Dew Point Humidity Pressure Visibility Wind Dir Wind Speed Gust Speed Precip Events Conditions
12:53 AM 55.0 °F 51.1 °F 86% 29.69 in 10.0 mi SE 10.4 mph - N/A   Mostly Cloudy
1:05 AM 53.6 °F 51.8 °F 94% 29.69 in 10.0 mi SSE 12.7 mph - N/A   Scattered Clouds
1:53 AM 54.0 °F 51.1 °F 90% 29.70 in 10.0 mi South 8.1 mph - N/A   Partly Cloudy
2:33 AM 53.6 °F 51.8 °F 94% 29.68 in 10.0 mi South 5.8 mph - N/A   Mostly Cloudy
2:45 AM 53.6 °F 51.8 °F 94% 29.69 in 10.0 mi South 5.8 mph - N/A   Scattered Clouds
2:53 AM 53.1 °F 51.1 °F 93% 29.70 in 10.0 mi South 6.9 mph - N/A   Scattered Clouds
3:02 AM 53.6 °F 51.8 °F 94% 29.69 in 10.0 mi South 4.6 mph - N/A   Mostly Cloudy
3:53 AM 54.0 °F 52.0 °F 93% 29.67 in 10.0 mi SSE 8.1 mph - N/A   Overcast
4:18 AM 53.6 °F 51.8 °F 94% 29.68 in 10.0 mi SSE 6.9 mph - N/A   Scattered Clouds
4:53 AM 51.1 °F 50.0 °F 96% 29.68 in 8.0 mi South 5.8 mph - N/A   Partly Cloudy
5:53 AM 52.0 °F 51.1 °F 97% 29.70 in 8.0 mi East 5.8 mph - N/A   Partly Cloudy
6:12 AM 53.6 °F 51.8 °F 94% 29.72 in 9.0 mi ESE 6.9 mph - N/A   Mostly Cloudy
6:31 AM 53.6 °F 51.8 °F 94% 29.73 in 9.0 mi SE 5.8 mph - N/A   Scattered Clouds
6:53 AM 53.1 °F 51.1 °F 93% 29.72 in 9.0 mi ESE 3.5 mph - N/A   Clear
7:53 AM 55.0 °F 52.0 °F 89% 29.75 in 10.0 mi SE 8.1 mph - N/A   Overcast
8:53 AM 55.9 °F 52.0 °F 87% 29.78 in 10.0 mi SE 12.7 mph - N/A   Overcast
9:27 AM 55.4 °F 51.8 °F 88% 29.79 in 10.0 mi SE 13.8 mph - N/A   Overcast
9:53 AM 55.9 °F 51.1 °F 84% 29.80 in 10.0 mi SSE 12.7 mph - N/A   Overcast
10:53 AM 57.0 °F 51.1 °F 81% 29.81 in 10.0 mi South 9.2 mph - N/A   Overcast
11:53 AM 57.0 °F 50.0 °F 77% 29.81 in 10.0 mi South 12.7 mph - 0.00 in Rain Light Rain
12:53 PM 55.9 °F 52.0 °F 87% 29.81 in 5.0 mi SW 5.8 mph - 0.03 in Rain Light Rain
1:53 PM 55.9 °F 52.0 °F 87% 29.79 in 6.0 mi West 3.5 mph - 0.04 in Rain Light Rain
2:08 PM 55.4 °F 51.8 °F 88% 29.79 in 4.0 mi WNW 8.1 mph - 0.02 in Rain Rain
2:53 PM 55.9 °F 52.0 °F 87% 29.78 in 8.0 mi NW 8.1 mph - 0.04 in Rain Light Rain
3:10 PM 55.4 °F 51.8 °F 88% 29.79 in 10.0 mi NW 8.1 mph - 0.01 in Rain Light Rain
3:16 PM 55.4 °F 51.8 °F 88% 29.79 in 10.0 mi NW 6.9 mph - 0.01 in Rain Light Rain
3:53 PM 55.0 °F 51.1 °F 86% 29.79 in 8.0 mi WNW 4.6 mph - 0.03 in Rain Light Rain
4:14 PM 55.4 °F 51.8 °F 88% 29.80 in 2.0 mi North 5.8 mph - 0.01 in Rain Light Rain
4:29 PM 55.4 °F 50.0 °F 82% 29.79 in 3.0 mi North 5.8 mph - 0.02 in Rain Light Rain
4:53 PM 53.6 °F 50.0 °F 88% 29.80 in 10.0 mi North 4.6 mph - N/A Rain Light Rain
5:42 PM 55.4 °F 51.8 °F 88% 29.80 in 7.0 mi NNW 5.8 mph - 0.02 in Rain Light Rain
5:53 PM 53.6 °F 51.8 °F 94% 29.80 in 7.0 mi NW 11.5 mph - N/A Rain Light Rain
6:00 PM 53.6 °F 51.8 °F 94% 29.80 in 7.0 mi NW 13.8 mph - 0.01 in Rain Light Rain
6:53 PM 53.1 °F 50.0 °F 89% 29.82 in 10.0 mi North 19.6 mph - 0.02 in Rain Light Rain
7:00 PM 53.6 °F 50.0 °F 88% 29.82 in 7.0 mi North 13.8 mph 24.2 mph 0.01 in Rain Light Rain
7:07 PM 53.6 °F 50.0 °F 88% 29.82 in 5.0 mi North 16.1 mph - 0.01 in   Overcast
7:53 PM 52.0 °F 48.9 °F 89% 29.81 in 9.0 mi North 12.7 mph - 0.02 in Rain Light Rain
8:00 PM 51.8 °F 48.2 °F 88% 29.82 in 10.0 mi North 11.5 mph - 0.00 in   Overcast
8:49 PM 51.8 °F 48.2 °F 88% 29.83 in 10.0 mi North 11.5 mph - 0.00 in   Overcast
8:53 PM 52.0 °F 48.9 °F 89% 29.82 in 10.0 mi North 11.5 mph - 0.00 in   Overcast
9:53 PM 52.0 °F 50.0 °F 93% 29.81 in 10.0 mi North 9.2 mph - N/A   Overcast
10:53 PM 53.1 °F 51.1 °F 93% 29.83 in 4.0 mi North 5.8 mph - 0.00 in Rain Light Rain
11:53 PM 53.1 °F 51.1 °F 93% 29.81 in 6.0 mi North 3.5 mph - 0.00 in   Overcast